TimePST,TemperatureF,Dew PointF,Humidity,Sea Level PressureIn,VisibilityMPH,Wind Direction,Wind SpeedMPH,Gust SpeedMPH,PrecipitationIn,Events,Conditions,WindDirDegrees,DateUTC
12:15 AM,39.2,32.0,75,30.14,10.0,Calm,Calm,-,N/A,,Clear,0,2013-01-17 08:15:00
12:35 AM,39.2,32.0,75,30.15,10.0,NW,3.5,-,N/A,,Clear,320,2013-01-17 08:35:00
12:55 AM,37.4,32.0,81,30.15,10.0,Calm,Calm,-,N/A,,Clear,0,2013-01-17 08:55:00
1:15 AM,37.4,32.0,81,30.15,10.0,Calm,Calm,-,N/A,,Clear,0,2013-01-17 09:15:00
1:35 AM,37.4,32.0,81,30.15,10.0,Calm,Calm,-,N/A,,Clear,0,2013-01-17 09:35:00
1:55 AM,37.4,32.0,81,30.15,10.0,Calm,Calm,-,N/A,,Clear,0,2013-01-17 09:55:00
2:15 AM,37.4,32.0,81,30.15,10.0,Calm,Calm,-,N/A,,Clear,0,2013-01-17 10:15:00
2:35 AM,35.6,32.0,87,30.14,10.0,Calm,Calm,-,N/A,,Clear,0,2013-01-17 10:35:00
2:55 AM,35.6,32.0,87,30.14,10.0,Calm,Calm,-,N/A,,Clear,0,2013-01-17 10:55:00
3:15 AM,35.6,32.0,87,30.14,10.0,Calm,Calm,-,N/A,,Clear,0,2013-01-17 11:15:00
3:35 AM,35.6,32.0,87,30.14,10.0,North,3.5,-,N/A,,Clear,350,2013-01-17 11:35:00
3:55 AM,35.6,32.0,87,30.14,10.0,Calm,Calm,-,N/A,,Clear,0,2013-01-17 11:55:00
4:15 AM,35.6,32.0,87,30.15,10.0,Calm,Calm,-,N/A,,Clear,0,2013-01-17 12:15:00
4:35 AM,35.6,32.0,87,30.14,10.0,Calm,Calm,-,N/A,,Clear,0,2013-01-17 12:35:00
4:55 AM,35.6,32.0,87,30.14,10.0,Calm,Calm,-,N/A,,Clear,0,2013-01-17 12:55:00
5:15 AM,33.8,32.0,93,30.14,10.0,Calm,Calm,-,N/A,,Clear,0,2013-01-17 13:15:00
6:47 AM,33.8,32.0,93,30.16,7.0,Calm,Calm,-,N/A,,Clear,0,2013-01-17 14:47:00
2:50 PM,78.8,30.2,17,30.06,25.0,West,8.1,-,N/A,,Clear,270,2013-01-17 22:50:00
3:47 PM,75.2,28.4,18,30.07,25.0,WNW,11.5,-,N/A,,Clear,300,2013-01-17 23:47:00
4:47 PM,68.0,32.0,26,30.09,25.0,West,5.8,-,N/A,,Clear,270,2013-01-18 00:47:00
8:55 PM,48.2,32.0,54,30.13,10.0,NW,3.5,-,N/A,,Clear,310,2013-01-18 04:55:00
9:15 PM,48.2,32.0,54,30.14,10.0,West,3.5,-,N/A,,Clear,280,2013-01-18 05:15:00
9:35 PM,46.4,30.2,53,30.14,10.0,Calm,Calm,-,N/A,,Clear,0,2013-01-18 05:35:00
9:55 PM,46.4,32.0,57,30.14,10.0,Calm,Calm,-,N/A,,Clear,0,2013-01-18 05:55:00
10:15 PM,46.4,30.2,53,30.13,10.0,Calm,Calm,-,N/A,,Clear,0,2013-01-18 06:15:00
10:35 PM,46.4,30.2,53,30.13,10.0,Calm,Calm,-,N/A,,Clear,0,2013-01-18 06:35:00
10:55 PM,44.6,30.2,57,30.13,10.0,WNW,3.5,-,N/A,,Clear,290,2013-01-18 06:55:00
11:15 PM,42.8,30.2,61,30.14,10.0,Calm,Calm,-,N/A,,Clear,0,2013-01-18 07:15:00
11:35 PM,42.8,30.2,61,30.14,10.0,Calm,Calm,-,N/A,,Clear,0,2013-01-18 07:35:00
11:55 PM,42.8,28.4,57,30.14,10.0,Calm,Calm,-,N/A,,Clear,0,2013-01-18 07:55:00